Regional Weather Roundup
Issued by NWS Kansas City/Pleasant Hill, MO

Home | Current Version | Previous Version | Graphics & Text | Print | Product List | Glossary Off
Versions: 1 2 3 4 5 6 7 8 9 10 11 12 13 14 15 16 17 18 19 20 21 22 23 24 25 26 27 28 29 30 31 32 33 34 35 36 37 38 39 40 41 42 43 44 45 46 47 48 49 50

000
ASUS43 KEAX 260904
RWREAX

WEATHER ROUNDUP FOR EASTERN KANSAS AND NORTHWEST MISSOURI
NATIONAL WEATHER SERVICE KANSAS CITY/PLEASANT HILL MO
300 AM CST MON JAN 26 2015

KSZ040-057-103>105-MOZ028-029-037-043-261000-
...KANSAS CITY METROPOLITAN AREA...

CITY           SKY/WX    TMP DP  RH WIND       PRES   REMARKS
K.C. INTL      CLEAR     26  26 100 SW8       30.08F FOG     WCI  18
K.C. DOWNTOWN  CLEAR     29  26  89 SW3       30.09F
LEES SUMMIT    CLEAR     27  25  92 SW3       30.08F
OLATHE - IXD   CLEAR     24  23  96 SW3       30.09F
OLATHE - OJC   CLEAR     25  24  96 CALM      30.08F
LAWRENCE       CLEAR     19  17  92 NW3       30.11F

$$

MOZ001>008-011>017-020>025-030>033-038>040-044>046-053-054-261000-
...NORTHERN AND CENTRAL MISSOURI...

CITY           SKY/WX    TMP DP  RH WIND       PRES   REMARKS
ST. JOSEPH     CLEAR     23  22  96 SW3       30.09S FOG
MOSBY            N/A     23  23 100 CALM      30.09S
WARRENSBURG    CLEAR     28  27  93 SW5       30.09F WCI  23
WHITEMAN AFB   CLEAR     28  25  89 SW5       30.07F WCI  23
CLINTON        MOCLDY    32  30  93 S3        30.10F
SEDALIA        CLEAR     32  27  81 CALM      30.08F
WARSAW         NOT AVBL
MARSHALL       CLOUDY    36  30  80 N3        30.10R
CHILLICOTHE      N/A     30  27  88 CALM      30.08S
KIRKSVILLE     CLOUDY    29  26  89 SW5       30.03F WCI  24

$$

MOZ041-047>049-056>058-063>065-088>090-097-261000-
...EASTERN AND SOUTHERN MISSOURI...

CITY           SKY/WX    TMP DP  RH WIND       PRES   REMARKS
ST. LOUIS INTL MOCLDY    28  19  69 NW9       30.04S WCI  19
SPIRIT OF STL  MOCLDY    27  22  81 NW7       30.06R WCI  19
COLUMBIA       CLOUDY    30  26  85 N8        30.08R WCI  22
JEFFERSON CITY CLOUDY    32  27  81 NW7       30.09S WCI  26
MEXICO         CLEAR     27  27 100 CALM      30.07R
HANNIBAL       CLOUDY    27  23  86 W3        30.05F
ROLLA          CLOUDY    29  26  89 NW12      30.04R WCI  19
LEBANON        CLOUDY    32  28  86 NW9       30.07R WCI  24
OSAGE BEACH    CLOUDY    32  27  80 NW6       30.09R WCI  26
SPRINGFIELD    CLOUDY    33  27  78 N13       30.08S WCI  24
NEVADA         CLEAR     27  25  93 W5        30.12F WCI  21
JOPLIN         CLEAR     27  24  89 CALM      30.12F
WEST PLAINS    CLOUDY    33  28  81 NW12      30.05S WCI  24

$$

IAZ060-094-KSZ022-034>040-054-083-096-NEZ052-066-093-261000-
...KANSAS...SOUTHEAST NEBRASKA AND IOWA...

CITY           SKY/WX    TMP DP  RH WIND       PRES   REMARKS
TOPEKA         CLEAR     25  23  92 CALM      30.11S
MANHATTAN      MOCLDY    28  26  92 SW3       30.11F
EMPORIA        CLEAR     26  24  92 SW6       30.11F WCI  19
CHANUTE        CLEAR     28  26  92 W6        30.14R WCI  22
WICHITA        PTCLDY    27  24  89 SW5       30.14S WCI  22
OMAHA          CLEAR     28  26  92 S9        30.00F WCI  19
LINCOLN        PTCLDY    31  28  89 S6        30.02F WCI  25
FALLS CITY     CLEAR     28  25  88 S5        30.06F WCI  23
LAMONI         CLOUDY    30  26  85 SW6       30.03F WCI  24
DES MOINES     CLOUDY    32  26  78 SW8       30.01F WCI  25

$$



USA.gov is the U.S. government's official web portal to all federal, state and local government web resources and services.